This is the latest recevied weather packets stored in our database for station/object KD9NSC. If no packets are shown the sender has not sent any weather packets the latest 10 day(s).
| Time | Temp. | Humidity | Pressure | Rain* | Wind** | Luminosity | Snow |
|---|---|---|---|---|---|---|---|
| 1777845192 | 17.78° C | 48% | 1010 hPa | 0 mm | - | 47 W/m² | - |
| 1777844890 | 17.22° C | 49% | 1010.2 hPa | 0 mm | - | 34 W/m² | - |
| 1777844587 | 17.22° C | 48% | 1010.3 hPa | 0 mm | - | 35 W/m² | - |
| 1777844284 | 17.22° C | 49% | 1010.2 hPa | 0 mm | - | 38 W/m² | - |
| 1777843982 | 17.22° C | 48% | 1010.1 hPa | 0 mm | - | 40 W/m² | - |
| 1777843678 | 17.22° C | 50% | 1010.2 hPa | 0 mm | - | 43 W/m² | - |
| 1777843376 | 17.22° C | 49% | 1010.2 hPa | 0 mm | - | 43 W/m² | - |
| 1777843074 | 17.22° C | 49% | 1010.6 hPa | 0 mm | - | 41 W/m² | - |
| 1777842770 | 16.67° C | 51% | 1010.5 hPa | 0 mm | - | 42 W/m² | - |
| 1777842464 | 16.67° C | 49% | 1010.6 hPa | 0 mm | - | 36 W/m² | - |
| 1777842162 | 16.67° C | 52% | 1010.5 hPa | 0 mm | - | 76 W/m² | - |
| 1777841863 | 16.11° C | 53% | 1010.7 hPa | 0 mm | - | 80 W/m² | - |
| 1777841560 | 15.56° C | 66% | 1010.7 hPa | 0 mm | - | 54 W/m² | - |
| 1777841256 | 15.56° C | 64% | 1010.8 hPa | 0 mm | - | 34 W/m² | - |
| 1777840954 | 15.56° C | 64% | 1010.8 hPa | 0 mm | - | 103 W/m² | - |
| 1777840651 | 15° C | 65% | 1010.7 hPa | 0 mm | - | 174 W/m² | - |
| 1777840348 | 14.44° C | 67% | 1010.8 hPa | 0 mm | - | 47 W/m² | - |
| 1777840045 | 14.44° C | 68% | 1010.9 hPa | 0 mm | - | 45 W/m² | - |
| 1777839743 | 14.44° C | 67% | 1010.9 hPa | 0 mm | - | 48 W/m² | - |
| 1777839441 | 13.89° C | 67% | 1011.1 hPa | 0 mm | - | 98 W/m² | - |
| 1777839138 | 13.89° C | 69% | 1011.2 hPa | 0 mm | - | 53 W/m² | - |
| 1777838834 | 13.89° C | 68% | 1011.2 hPa | 0 mm | - | 271 W/m² | - |
| 1777838531 | 13.89° C | 67% | 1011.4 hPa | 0 mm | - | 150 W/m² | - |
| 1777838228 | 13.89° C | 69% | 1011.4 hPa | 0 mm | - | 135 W/m² | - |
| 1777837925 | 13.33° C | 69% | 1011.7 hPa | 0 mm | - | 100 W/m² | - |
* Rain latest hour (hover to see other rain measurements)
** Current wind speed in m/s (hover to see current wind gust speed)